Flag for Canada Weather past 2 weeks in Corner Brook, Newfoundland and Labrador, Canada

Now
46 °F

Partly sunny.


Feels Like: 42 °F
Forecast: 37 / 60 °F
Wind: 9 mph from West

Location: Deer Lake

Current Time: May 25, 2015 at 8:14:56 AM

Latest Report: May 25, 2015 at 7:30 AM


Visibility: 15 mi

Pressure: 30.02 "Hg

Humidity: 71%

Dew point: 37 °F

Location of Corner BrookLocation

Historic Weather in Corner Brook — Graph

°F

Corner Brook temperature yesterday

Maximum temperature yesterday: 57 °F (at 1:30 PM)
Minimum temperature yesterday: 36 °F (at 2:30 AM)
Average temperature yesterday: 45 °F

Past Weeks' High & Low Weather Summary

 TemperatureHumidityPressure
High72 °F (May 17, 3:38 PM)100% (May 12, 7:30 PM)30.46 "Hg (May 12, 7:30 PM)
Low25 °F (May 14, 5:30 AM)21% (May 18, 5:30 PM)29.32 "Hg (May 21, 1:30 AM)
Average46 °F69%29.94 "Hg
* Reported May 10 6:30 AM — May 25 6:30 AM, Corner Brook, Weather by CustomWeather, © 2015

Note: Actual official high and low records may vary slightly from our data, if they occured in-between our weather recording intervals... More about our weather records

Advertising

Corner Brook weather history for previous 24 hours

 ConditionsComfort  
Time TempWeatherWind HumidityBarometerVisibility
6:30 AM
Mon, May 25
46 °FPartly sunny.9 mph71%30.00 "Hg15 mi
5:30 AM46 °FPassing clouds.10 mph71%29.98 "Hg15 mi
4:30 AM46 °FPartly cloudy.12 mph76%29.97 "Hg15 mi
3:30 AM45 °FPartly cloudy.12 mph76%29.96 "Hg15 mi
2:30 AM46 °FPassing clouds.14 mph76%29.95 "Hg15 mi
1:30 AM45 °FPassing clouds.13 mph81%29.94 "Hg15 mi
12:30 AM43 °FPassing clouds.7 mph81%29.93 "Hg15 mi
11:30 PM
Sun, May 24
43 °FPassing clouds.8 mph87%29.94 "Hg15 mi
10:30 PM41 °FPassing clouds.2 mph87%29.92 "Hg15 mi
9:30 PM45 °FScattered clouds.9 mph87%29.91 "Hg15 mi
8:30 PM46 °FBroken clouds.10 mph82%29.89 "Hg15 mi
7:30 PM46 °FSprinkles. More clouds than sun.10 mph87%29.88 "Hg15 mi
6:30 PM46 °FSprinkles. Overcast.13 mph82%29.90 "Hg10 mi
5:30 PM46 °FSprinkles. More clouds than sun.15 mph76%29.89 "Hg10 mi
4:30 PM54 °FSprinkles. More clouds than sun.22 mph47%29.88 "Hg15 mi
3:30 PM55 °FPartly sunny.23 mph44%29.87 "Hg15 mi
2:30 PM57 °FBroken clouds.22 mph41%29.88 "Hg15 mi
1:30 PM57 °FPartly sunny.14 mph39%29.88 "Hg15 mi
12:30 PM55 °FScattered clouds.15 mph44%29.88 "Hg15 mi
11:30 AM52 °FScattered clouds.22 mph54%29.88 "Hg15 mi
10:30 AM46 °FBroken clouds.18 mph71%29.87 "Hg15 mi
10:19 AM45 °FMore clouds than sun.22 mph81%29.87 "Hg15 mi
9:30 AM43 °FSprinkles. Overcast.12 mph87%29.85 "Hg15 mi
8:30 AM41 °FSprinkles. Overcast.13 mph93%29.83 "Hg8 mi
Weather by CustomWeather, © 2015

See weather overviewHow to use our weather pages